| time (UTC) | temp F | wind direction | speed knots | gust knots | rain 1hr in | rain 24hr in | rain mn in | humidity % | barometer mb |
| 20260506103029 | 0 | 0.0 | 0.0 | 0.00 | 0.03 | 0.00 | 1009.5 | ||
| 20260506101525 | 0 | 0.0 | 0.0 | 0.00 | 0.03 | 0.00 | 1009.4 | ||
| 20260506100027 | 0 | 0.0 | 0.0 | 0.00 | 0.03 | 0.00 | 1009.6 | ||
| 20260506094530 | 0 | 0.0 | 0.0 | 0.00 | 0.03 | 0.00 | 1009.6 | ||
| 20260506093033 | 0 | 0.0 | 0.0 | 0.00 | 0.03 | 0.00 | 1009.4 | ||
| 20260506091531 | 0 | 0.0 | 0.0 | 0.00 | 0.03 | 0.00 | 1009.2 | ||
| 20260506090028 | 0 | 0.0 | 0.0 | 0.00 | 0.03 | 0.00 | 1009.1 | ||
| 20260506081521 | 53 | 324 | 0.0 | 0.0 | 0.00 | 0.03 | 0.00 | 94 | 1009.4 |
| 20260506073025 | 53 | 324 | 0.0 | 0.0 | 0.00 | 0.03 | 0.00 | 94 | 1009.1 |
| 20260506071520 | 53 | 259 | 0.0 | 0.0 | 0.00 | 0.03 | 0.00 | 93 | 1008.8 |
| 20260506061523 | 54 | 288 | 0.0 | 0.0 | 0.00 | 0.03 | 0.00 | 94 | 1008.0 |
| 20260506040016 | 56 | 269 | 0.0 | 0.0 | 0.00 | 0.03 | 0.00 | 95 | 1007.5 |
| 20260506034529 | 56 | 265 | 0.0 | 0.0 | 0.00 | 0.03 | 0.03 | 94 | 1007.4 |
| 20260506033024 | 57 | 260 | 0.0 | 0.0 | 0.00 | 0.03 | 0.03 | 95 | 1007.1 |
| 20260506031510 | 57 | 226 | 0.0 | 0.0 | 0.00 | 0.03 | 0.03 | 95 | 1007.2 |
| 20260506021508 | 58 | 219 | 0.0 | 1.7 | 0.00 | 0.03 | 0.03 | 94 | 1007.8 |
| 20260506020013 | 58 | 335 | 0.0 | 0.0 | 0.00 | 0.03 | 0.03 | 94 | 1007.8 |
| 20260506014520 | 58 | 335 | 0.0 | 1.7 | 0.00 | 0.03 | 0.03 | 94 | 1007.7 |
| 20260506011519 | 58 | 354 | 0.0 | 0.0 | 0.00 | 0.03 | 0.03 | 93 | 1007.2 |
| 20260506010012 | 59 | 354 | 0.0 | 1.7 | 0.00 | 0.03 | 0.03 | 93 | 1006.9 |
| 20260506004532 | 59 | 281 | 0.0 | 1.7 | 0.00 | 0.03 | 0.03 | 93 | 1006.8 |
| 20260506003021 | 59 | 340 | 0.0 | 1.7 | 0.00 | 0.03 | 0.03 | 93 | 1006.6 |
| 20260505234513 | 60 | 1 | 0.0 | 1.7 | 0.03 | 0.03 | 0.03 | 91 | 1006.0 |
| 20260505233027 | 61 | 1 | 0.0 | 1.7 | 0.03 | 0.03 | 0.03 | 90 | 1006.4 |
| 20260505224511 | 65 | 90 | 0.9 | 3.5 | 0.00 | 0.00 | 0.00 | 74 | 1006.1 |
| 20260505223020 | 69 | 307 | 1.7 | 13.9 | 0.00 | 0.00 | 0.00 | 63 | 1005.7 |
| 20260505221523 | 72 | 1 | 2.6 | 4.3 | 0.00 | 0.00 | 0.00 | 50 | 1005.1 |
| 20260505213021 | 74 | 198 | 1.7 | 4.3 | 0.00 | 0.00 | 0.00 | 47 | 1002.7 |
| 20260505201518 | 76 | 26 | 2.6 | 9.6 | 0.00 | 0.00 | 0.00 | 44 | 1002.6 |
| 20260505193034 | 76 | 108 | 1.7 | 6.1 | 0.00 | 0.00 | 0.00 | 45 | 1002.9 |
| 20260505191522 | 77 | 162 | 2.6 | 7.8 | 0.00 | 0.00 | 0.00 | 44 | 1002.8 |
| 20260505190021 | 77 | 199 | 0.9 | 7.8 | 0.00 | 0.00 | 0.00 | 44 | 1003.2 |
| 20260505184522 | 78 | 98 | 1.7 | 7.8 | 0.00 | 0.00 | 0.00 | 42 | 1003.4 |
| 20260505183035 | 80 | 25 | 1.7 | 7.0 | 0.00 | 0.00 | 0.00 | 37 | 1003.5 |
| 20260505181503 | 80 | 157 | 2.6 | 6.1 | 0.00 | 0.00 | 0.00 | 37 | 1003.8 |
| 20260505173006 | 79 | 200 | 0.9 | 6.1 | 0.00 | 0.00 | 0.00 | 39 | 1004.3 |
| 20260505171511 | 78 | 33 | 2.6 | 8.7 | 0.00 | 0.00 | 0.00 | 40 | 1004.5 |
| 20260505170003 | 78 | 232 | 0.9 | 5.2 | 0.00 | 0.01 | 0.00 | 39 | 1004.9 |
| 20260505163008 | 76 | 93 | 2.6 | 10.4 | 0.00 | 0.03 | 0.00 | 41 | 1005.4 |
| 20260505124516 | 60 | 207 | 1.7 | 3.5 | 0.00 | 0.04 | 0.00 | 1007.3 | |
| 20260505111521 | 0 | 0.0 | 0.0 | 0.00 | 0.04 | 0.00 | 1007.6 |